DAL228 KJFK-SBGR

Flight info

Callsign DAL228
Flight time N/A
Altitude 35000
Route SHIPP Y487 KINGG/M080F350 DCT KINER L461 BOVIC M591 BDA L576 CITRS/N0466F370 UL576 TRAPP/N0474F360 UL576 ZY/N0472F380 UL576 NISKI/N0471F370 UL576 SUDRO/N0465F390 UL576 ISINA UZ37 PULUV UZ2 MULUV/N0461F380 UZ38 VUNOX
Aircraft A339/H-SADE1E2E3GHIJ3J5M1P2RWXY/LB2D1

Departure

Time 2026-05-08 17:17
Airport John F. Kennedy International Airport (KJFK)

Arrival

Time N/A
Airport São Paulo/Guarulhos–Governor André Franco Montoro International Airport (SBGR)
Time Latitude Longitude Altitude Speed Heading
2026-05-08 16:54 40.64014 -73.78075 26 ft 0 kts 247°
2026-05-08 17:06 40.64018 -73.78062 32 ft 2 kts 247°
2026-05-08 17:06 40.64024 -73.78045 28 ft 2 kts 247°
2026-05-08 17:06 40.64029 -73.78028 32 ft 2 kts 247°
2026-05-08 17:07 40.64034 -73.78010 32 ft 2 kts 239°
2026-05-08 17:07 40.64042 -73.77994 31 ft 2 kts 210°
2026-05-08 17:07 40.64054 -73.77984 30 ft 2 kts 180°
2026-05-08 17:07 40.64062 -73.77981 32 ft 0 kts 154°
2026-05-08 17:09 40.64058 -73.77979 32 ft 3 kts 154°
2026-05-08 17:10 40.64022 -73.77955 31 ft 8 kts 151°
2026-05-08 17:10 40.63964 -73.77894 31 ft 13 kts 141°
2026-05-08 17:10 40.63883 -73.77802 30 ft 17 kts 139°
2026-05-08 17:10 40.63795 -73.77704 32 ft 16 kts 140°
2026-05-08 17:11 40.63698 -73.77680 29 ft 14 kts 196°
2026-05-08 17:11 40.63615 -73.77739 32 ft 13 kts 210°
2026-05-08 17:11 40.63540 -73.77797 30 ft 12 kts 210°
2026-05-08 17:11 40.63472 -73.77851 26 ft 12 kts 211°
2026-05-08 17:12 40.63395 -73.77909 26 ft 13 kts 201°
2026-05-08 17:12 40.63339 -73.77864 27 ft 10 kts 134°
2026-05-08 17:12 40.63299 -73.77785 29 ft 11 kts 122°
2026-05-08 17:12 40.63254 -73.77688 30 ft 14 kts 121°
2026-05-08 17:13 40.63198 -73.77565 28 ft 18 kts 121°
2026-05-08 17:13 40.63128 -73.77412 27 ft 21 kts 121°
2026-05-08 17:13 40.63048 -73.77235 27 ft 24 kts 121°
2026-05-08 17:13 40.62962 -73.77043 26 ft 21 kts 121°
2026-05-08 17:14 40.62934 -73.76956 26 ft 0 kts 91°
2026-05-08 17:14 40.62935 -73.76982 26 ft 5 kts 93°
2026-05-08 17:14 40.62936 -73.77010 26 ft 1 kts 94°
2026-05-08 17:14 40.62937 -73.77025 26 ft 4 kts 95°
2026-05-08 17:15 40.62942 -73.77061 25 ft 3 kts 172°
2026-05-08 17:15 40.62938 -73.77070 27 ft 4 kts 201°
2026-05-08 17:15 40.62903 -73.77090 27 ft 6 kts 203°
2026-05-08 17:15 40.62863 -73.77116 28 ft 6 kts 208°
2026-05-08 17:16 40.62833 -73.77145 28 ft 5 kts 221°
2026-05-08 17:16 40.62822 -73.77186 28 ft 5 kts 259°
2026-05-08 17:16 40.62840 -73.77256 28 ft 12 kts 295°
2026-05-08 17:16 40.62887 -73.77379 29 ft 24 kts 296°
2026-05-08 17:17 40.63083 -73.77833 31 ft 92 kts 301°
2026-05-08 17:17 40.63522 -73.78808 29 ft 149 kts 301°
2026-05-08 17:17 40.64126 -73.80118 146 ft 180 kts 298°
2026-05-08 17:17 40.64764 -73.81503 932 ft 179 kts 295°
2026-05-08 17:18 40.64917 -73.83144 1474 ft 193 kts 253°
2026-05-08 17:18 40.64028 -73.84417 2044 ft 199 kts 205°
2026-05-08 17:18 40.62720 -73.84784 2890 ft 188 kts 190°
2026-05-08 17:18 40.61443 -73.84976 3595 ft 184 kts 189°
2026-05-08 17:19 40.60125 -73.85020 4022 ft 196 kts 177°
2026-05-08 17:19 40.58858 -73.84284 4309 ft 211 kts 135°
2026-05-08 17:19 40.58081 -73.82785 4962 ft 202 kts 113°
2026-05-08 17:19 40.57444 -73.81066 5445 ft 210 kts 116°
2026-05-08 17:20 40.56751 -73.79275 5678 ft 230 kts 117°
2026-05-08 17:20 40.55974 -73.77334 5866 ft 250 kts 118°
2026-05-08 17:20 40.55109 -73.75277 6046 ft 270 kts 120°
2026-05-08 17:20 40.54149 -73.73060 6232 ft 288 kts 121°
2026-05-08 17:21 40.53126 -73.70722 6545 ft 299 kts 121°
2026-05-08 17:21 40.52084 -73.68332 7015 ft 304 kts 122°
2026-05-08 17:21 40.51029 -73.65905 7510 ft 308 kts 122°
2026-05-08 17:21 40.49959 -73.63441 7986 ft 312 kts 123°
2026-05-08 17:22 40.48875 -73.60948 8488 ft 316 kts 124°
2026-05-08 17:22 40.47775 -73.58425 9014 ft 320 kts 125°
2026-05-08 17:22 40.46674 -73.55903 9485 ft 325 kts 125°
2026-05-08 17:22 40.45544 -73.53318 9995 ft 329 kts 126°
2026-05-08 17:23 40.44385 -73.50680 10265 ft 341 kts 126°
2026-05-08 17:23 40.43168 -73.47925 10420 ft 357 kts 126°
2026-05-08 17:23 40.41897 -73.45049 10591 ft 372 kts 125°
2026-05-08 17:23 40.40589 -73.42071 10916 ft 379 kts 125°
2026-05-08 17:24 40.39271 -73.39060 11410 ft 382 kts 125°
2026-05-08 17:24 40.37941 -73.36023 11886 ft 385 kts 125°
2026-05-08 17:24 40.36600 -73.32972 12363 ft 388 kts 125°
2026-05-08 17:24 40.35243 -73.29894 12844 ft 391 kts 125°
2026-05-08 17:25 40.33890 -73.26831 13304 ft 395 kts 125°
2026-05-08 17:25 40.32484 -73.23730 13752 ft 396 kts 129°
2026-05-08 17:25 40.30962 -73.20710 14158 ft 399 kts 129°
2026-05-08 17:25 40.29434 -73.17668 14598 ft 401 kts 129°
2026-05-08 17:26 40.27904 -73.14605 15016 ft 404 kts 129°
2026-05-08 17:26 40.26365 -73.11516 15435 ft 406 kts 129°
2026-05-08 17:26 40.24814 -73.08408 15845 ft 409 kts 130°
2026-05-08 17:26 40.23254 -73.05283 16273 ft 412 kts 130°
2026-05-08 17:27 40.21683 -73.02136 16683 ft 414 kts 130°
2026-05-08 17:27 40.20120 -72.99011 17080 ft 417 kts 130°
2026-05-08 17:27 40.18525 -72.95826 17484 ft 421 kts 130°
2026-05-08 17:27 40.16912 -72.92610 17878 ft 423 kts 131°
2026-05-08 17:28 40.15292 -72.89382 18266 ft 427 kts 131°
2026-05-08 17:28 40.13658 -72.86129 18629 ft 429 kts 131°
2026-05-08 17:28 40.12013 -72.82860 18971 ft 433 kts 131°
2026-05-08 17:28 40.10354 -72.79566 19316 ft 436 kts 131°
2026-05-08 17:29 40.08722 -72.76204 19649 ft 441 kts 129°
2026-05-08 17:29 40.07185 -72.72772 19998 ft 445 kts 128°
2026-05-08 17:29 40.05636 -72.69250 20357 ft 448 kts 128°
2026-05-08 17:29 40.04075 -72.65722 20732 ft 451 kts 128°
2026-05-08 17:30 40.02489 -72.62181 21081 ft 453 kts 128°
2026-05-08 17:30 40.00882 -72.58625 21443 ft 456 kts 128°
2026-05-08 17:30 39.99261 -72.55055 21800 ft 459 kts 128°
2026-05-08 17:30 39.97628 -72.51469 22163 ft 462 kts 128°
2026-05-08 17:31 39.95987 -72.47855 22510 ft 465 kts 128°
2026-05-08 17:31 39.94386 -72.44232 22879 ft 469 kts 127°
2026-05-08 17:31 39.92773 -72.40535 23230 ft 472 kts 127°
2026-05-08 17:31 39.91145 -72.36804 23592 ft 475 kts 127°
2026-05-08 17:32 39.89505 -72.33060 23905 ft 477 kts 127°
2026-05-08 17:32 39.87854 -72.29305 24224 ft 479 kts 128°
2026-05-08 17:32 39.86190 -72.25535 24544 ft 481 kts 128°
2026-05-08 17:32 39.84516 -72.21750 24860 ft 484 kts 128°
2026-05-08 17:33 39.82834 -72.17950 25173 ft 486 kts 128°
2026-05-08 17:33 39.81146 -72.14143 25499 ft 488 kts 128°
2026-05-08 17:33 39.79445 -72.10314 25805 ft 490 kts 128°
2026-05-08 17:33 39.77734 -72.06465 26119 ft 492 kts 128°
2026-05-08 17:34 39.76019 -72.02612 26437 ft 494 kts 128°
2026-05-08 17:34 39.74318 -71.98793 26749 ft 496 kts 128°
2026-05-08 17:34 39.72563 -71.94932 27064 ft 497 kts 129°
2026-05-08 17:34 39.70766 -71.91086 27366 ft 498 kts 129°
2026-05-08 17:35 39.68962 -71.87246 27658 ft 500 kts 129°
2026-05-08 17:35 39.67152 -71.83387 27978 ft 501 kts 129°
2026-05-08 17:35 39.65339 -71.79517 28279 ft 503 kts 129°
2026-05-08 17:35 39.63521 -71.75629 28583 ft 505 kts 129°
2026-05-08 17:36 39.61698 -71.71730 28883 ft 506 kts 129°
2026-05-08 17:36 39.59893 -71.67873 29168 ft 508 kts 129°
2026-05-08 17:36 39.58054 -71.63950 29453 ft 509 kts 129°
2026-05-08 17:36 39.56210 -71.60023 29754 ft 511 kts 129°
2026-05-08 17:37 39.54360 -71.56085 30397 ft 512 kts 128°
2026-05-08 17:37 39.52476 -71.52133 30440 ft 519 kts 127°
2026-05-08 17:37 39.50582 -71.48125 30579 ft 523 kts 126°
2026-05-08 17:37 39.48687 -71.44098 30831 ft 525 kts 126°
2026-05-08 17:38 39.46784 -71.40059 31076 ft 527 kts 126°
2026-05-08 17:38 39.44858 -71.36010 31285 ft 527 kts 128°
2026-05-08 17:38 39.42648 -71.32348 31505 ft 520 kts 140°
2026-05-08 17:38 39.39990 -71.29263 31716 ft 510 kts 152°
2026-05-08 17:39 39.37007 -71.26850 31915 ft 502 kts 160°
2026-05-08 17:39 39.33946 -71.24652 32135 ft 504 kts 160°
2026-05-08 17:39 39.30884 -71.22429 32325 ft 507 kts 159°
2026-05-08 17:39 39.27817 -71.20164 32511 ft 509 kts 159°
2026-05-08 17:40 39.24738 -71.17865 32666 ft 512 kts 159°
2026-05-08 17:40 39.21663 -71.15556 32825 ft 513 kts 159°
2026-05-08 17:40 39.18572 -71.13232 32964 ft 515 kts 159°
2026-05-08 17:40 39.15513 -71.10934 33096 ft 516 kts 159°
2026-05-08 17:41 39.09281 -71.06257 33309 ft 520 kts 159°
2026-05-08 17:41 39.06155 -71.03918 33418 ft 521 kts 159°
2026-05-08 17:41 39.03025 -71.01578 33548 ft 521 kts 159°
2026-05-08 17:42 38.99887 -70.99236 33674 ft 522 kts 159°
2026-05-08 17:42 38.97802 -70.97682 33764 ft 522 kts 160°
2026-05-08 17:42 38.94669 -70.95347 33908 ft 522 kts 160°
2026-05-08 17:42 38.91527 -70.93008 34041 ft 522 kts 160°
2026-05-08 17:43 38.88385 -70.90670 34148 ft 522 kts 160°
2026-05-08 17:43 38.84218 -70.87575 34310 ft 522 kts 160°
2026-05-08 17:43 38.81077 -70.85246 34411 ft 522 kts 160°
2026-05-08 17:43 38.77936 -70.82920 34540 ft 522 kts 160°
2026-05-08 17:44 38.72707 -70.79052 34724 ft 522 kts 160°
2026-05-08 17:44 38.69560 -70.76728 34832 ft 522 kts 160°
2026-05-08 17:44 38.66417 -70.74409 34943 ft 522 kts 160°
2026-05-08 17:45 38.60122 -70.69770 35018 ft 522 kts 161°
2026-05-08 17:45 38.52809 -70.64395 35012 ft 522 kts 161°
2026-05-08 17:46 38.47571 -70.60553 35013 ft 522 kts 161°
2026-05-08 17:46 38.41273 -70.55943 35012 ft 522 kts 161°
2026-05-08 17:47 38.34965 -70.51334 35014 ft 522 kts 161°
2026-05-08 17:47 38.28663 -70.46739 35011 ft 522 kts 161°
2026-05-08 17:48 38.22355 -70.42149 35010 ft 522 kts 161°
2026-05-08 17:48 38.16112 -70.37508 35007 ft 529 kts 157°
2026-05-08 17:49 38.13136 -70.34677 35008 ft 540 kts 149°
2026-05-08 17:49 38.10380 -70.31367 35006 ft 551 kts 142°
2026-05-08 17:49 38.05202 -70.24158 34997 ft 553 kts 141°
2026-05-08 17:50 37.99987 -70.17015 35013 ft 552 kts 142°
2026-05-08 17:50 37.94756 -70.09906 35012 ft 552 kts 142°
2026-05-08 17:51 37.89545 -70.02843 35015 ft 552 kts 142°
2026-05-08 17:51 37.84296 -69.95743 35019 ft 552 kts 142°
2026-05-08 17:52 37.79044 -69.88655 35019 ft 552 kts 142°
2026-05-08 17:53 37.71171 -69.78061 35018 ft 551 kts 142°
2026-05-08 17:53 37.65956 -69.71062 35023 ft 550 kts 142°
2026-05-08 17:54 37.60708 -69.64035 35012 ft 550 kts 142°
2026-05-08 17:54 37.55459 -69.57022 35009 ft 550 kts 142°
2026-05-08 17:55 37.50375 -69.50244 35018 ft 549 kts 142°
2026-05-08 17:55 37.45126 -69.43260 35020 ft 549 kts 142°
2026-05-08 17:56 37.39876 -69.36289 35015 ft 549 kts 143°
2026-05-08 17:56 37.34625 -69.29333 35012 ft 548 kts 143°
2026-05-08 17:57 37.29379 -69.22397 35014 ft 548 kts 143°
2026-05-08 17:57 37.24159 -69.15512 35010 ft 548 kts 143°
2026-05-08 17:58 37.18901 -69.08591 35000 ft 548 kts 143°
2026-05-08 17:58 37.13865 -69.01977 34991 ft 548 kts 143°
2026-05-08 17:59 37.08598 -68.95073 35004 ft 548 kts 143°
2026-05-08 17:59 37.03327 -68.88179 35016 ft 548 kts 143°
2026-05-08 18:00 36.98053 -68.81295 35006 ft 548 kts 143°
2026-05-08 18:00 36.90178 -68.71043 34997 ft 548 kts 143°
2026-05-08 18:01 36.84894 -68.64183 34999 ft 548 kts 143°
2026-05-08 18:01 36.79608 -68.57337 34994 ft 548 kts 143°
2026-05-08 18:02 36.74358 -68.50549 34997 ft 548 kts 143°
2026-05-08 18:02 36.69065 -68.43721 34991 ft 547 kts 143°
2026-05-08 18:03 36.63773 -68.36907 34994 ft 547 kts 143°
2026-05-08 18:03 36.58467 -68.30104 34990 ft 545 kts 145°
2026-05-08 18:04 36.52744 -68.24143 34991 ft 533 kts 153°
2026-05-08 18:04 36.46934 -68.18515 34988 ft 534 kts 153°
2026-05-08 18:05 36.41180 -68.12900 34985 ft 534 kts 153°
2026-05-08 18:05 36.35242 -68.07117 34991 ft 534 kts 153°
2026-05-08 18:06 36.29398 -68.01442 34985 ft 534 kts 153°
2026-05-08 18:06 36.23584 -67.95806 34978 ft 534 kts 153°
2026-05-08 18:07 36.17727 -67.90139 34989 ft 534 kts 153°
2026-05-08 18:07 36.11871 -67.84485 34989 ft 534 kts 153°
2026-05-08 18:08 36.06012 -67.78838 34985 ft 534 kts 153°
2026-05-08 18:08 36.00151 -67.73202 34987 ft 534 kts 153°
2026-05-08 18:09 35.94332 -67.67615 34982 ft 533 kts 153°
2026-05-08 18:09 35.88471 -67.61999 34978 ft 533 kts 153°
2026-05-08 18:10 35.82607 -67.56390 34980 ft 533 kts 153°
2026-05-08 18:10 35.76785 -67.50833 34975 ft 533 kts 153°
2026-05-08 18:11 35.70932 -67.45256 34980 ft 532 kts 153°
2026-05-08 18:11 35.65071 -67.39683 34971 ft 532 kts 153°
2026-05-08 18:12 35.59209 -67.34120 34972 ft 532 kts 153°
2026-05-08 18:12 35.53347 -67.28568 34970 ft 532 kts 153°
2026-05-08 18:13 35.47524 -67.23063 34966 ft 532 kts 153°
2026-05-08 18:13 35.41663 -67.17533 34967 ft 532 kts 153°
2026-05-08 18:14 35.35798 -67.12008 34968 ft 532 kts 153°
2026-05-08 18:14 35.29927 -67.06489 34960 ft 532 kts 153°
2026-05-08 18:15 35.24096 -67.01019 34974 ft 532 kts 153°
2026-05-08 18:15 35.18231 -66.95526 34969 ft 531 kts 153°
2026-05-08 18:16 35.12360 -66.90038 34959 ft 531 kts 153°
2026-05-08 18:16 35.06494 -66.84564 34960 ft 531 kts 152°
2026-05-08 18:17 35.00622 -66.79095 34954 ft 530 kts 152°
2026-05-08 18:17 34.94798 -66.73682 34957 ft 529 kts 152°
2026-05-08 18:18 34.88944 -66.68248 34956 ft 529 kts 152°
2026-05-08 18:18 34.82948 -66.63180 34952 ft 523 kts 156°
2026-05-08 18:19 34.76906 -66.58265 34948 ft 523 kts 155°
2026-05-08 18:19 34.70860 -66.53335 34948 ft 523 kts 155°
2026-05-08 18:20 34.64856 -66.48453 34952 ft 522 kts 155°
2026-05-08 18:20 34.58819 -66.43556 34944 ft 522 kts 155°
2026-05-08 18:21 34.52773 -66.38662 34953 ft 522 kts 155°
2026-05-08 18:21 34.46730 -66.33780 34938 ft 522 kts 155°
2026-05-08 18:22 34.40729 -66.28939 34943 ft 521 kts 155°
2026-05-08 18:22 34.34699 -66.24083 34940 ft 521 kts 155°
2026-05-08 18:23 34.28665 -66.19232 34938 ft 520 kts 155°
2026-05-08 18:23 34.22633 -66.14393 34936 ft 520 kts 155°
2026-05-08 18:24 34.16599 -66.09560 34933 ft 520 kts 155°
2026-05-08 18:24 34.10618 -66.04776 34930 ft 520 kts 155°
2026-05-08 18:25 34.04590 -65.99965 34927 ft 519 kts 155°
2026-05-08 18:25 33.98563 -65.95163 34928 ft 519 kts 155°
2026-05-08 18:26 33.92536 -65.90368 34928 ft 519 kts 155°
2026-05-08 18:26 33.86547 -65.85613 34932 ft 519 kts 154°
2026-05-08 18:27 33.81495 -65.81607 34928 ft 519 kts 154°
2026-05-08 18:27 33.74487 -65.76060 34930 ft 519 kts 154°
2026-05-08 18:28 33.68456 -65.71295 34930 ft 519 kts 154°
2026-05-08 18:28 33.62466 -65.66570 34933 ft 519 kts 154°
2026-05-08 18:29 33.56435 -65.61821 34931 ft 518 kts 154°
2026-05-08 18:29 33.50404 -65.57081 34933 ft 518 kts 154°
2026-05-08 18:30 33.44373 -65.52349 34932 ft 518 kts 154°
2026-05-08 18:30 33.38382 -65.47655 34935 ft 518 kts 154°
2026-05-08 18:31 33.32356 -65.42943 34935 ft 518 kts 154°
2026-05-08 18:31 33.26321 -65.38231 34938 ft 518 kts 154°
2026-05-08 18:32 33.20283 -65.33526 34940 ft 518 kts 154°
2026-05-08 18:32 33.14241 -65.28823 34942 ft 518 kts 154°
2026-05-08 18:33 33.08234 -65.24157 34945 ft 519 kts 154°
2026-05-08 18:33 33.02188 -65.19468 34949 ft 519 kts 154°
2026-05-08 18:34 32.96134 -65.14781 34950 ft 519 kts 154°
2026-05-08 18:34 32.90078 -65.10099 34954 ft 519 kts 153°
2026-05-08 18:35 32.84058 -65.05453 34951 ft 519 kts 153°
2026-05-08 18:35 32.78000 -65.00786 34957 ft 519 kts 153°
2026-05-08 18:36 32.71927 -64.96115 34952 ft 520 kts 153°
2026-05-08 18:36 32.65855 -64.91452 34943 ft 520 kts 153°
2026-05-08 18:37 32.59779 -64.86793 34955 ft 520 kts 153°
2026-05-08 18:37 32.53746 -64.82176 34959 ft 520 kts 153°
2026-05-08 18:38 32.47660 -64.77526 34957 ft 520 kts 153°
2026-05-08 18:38 32.41575 -64.72881 34964 ft 521 kts 153°
2026-05-08 18:39 32.35450 -64.68321 34966 ft 517 kts 157°
2026-05-08 18:39 32.29537 -64.64657 34962 ft 516 kts 159°
2026-05-08 18:40 32.25282 -64.62005 34962 ft 516 kts 158°
2026-05-08 18:40 32.21088 -64.59381 34950 ft 511 kts 158°
2026-05-08 18:41 32.14824 -64.55470 34964 ft 508 kts 158°
2026-05-08 18:41 32.08610 -64.51607 34976 ft 512 kts 158°
2026-05-08 18:42 32.02269 -64.47673 34979 ft 518 kts 158°
2026-05-08 18:42 31.95891 -64.43714 34988 ft 518 kts 158°
2026-05-08 18:43 31.89509 -64.39759 34988 ft 518 kts 158°
2026-05-08 18:43 31.83164 -64.35836 34992 ft 519 kts 158°
2026-05-08 18:44 31.76778 -64.31894 35003 ft 518 kts 158°
2026-05-08 18:44 31.70390 -64.27956 34985 ft 519 kts 158°
2026-05-08 18:45 31.63997 -64.24022 34982 ft 519 kts 158°
2026-05-08 18:45 31.57612 -64.20099 34999 ft 518 kts 158°
2026-05-08 18:46 31.51259 -64.16201 35007 ft 519 kts 158°
2026-05-08 18:46 31.44858 -64.12280 34999 ft 519 kts 158°
2026-05-08 18:47 31.38462 -64.08368 35006 ft 519 kts 158°
2026-05-08 18:47 31.32053 -64.04454 35004 ft 519 kts 158°
2026-05-08 18:48 31.25683 -64.00571 35010 ft 520 kts 158°
2026-05-08 18:48 31.19274 -63.96669 35009 ft 520 kts 158°
2026-05-08 18:49 31.12848 -63.92764 35014 ft 521 kts 158°
2026-05-08 18:49 31.06418 -63.88862 35016 ft 521 kts 158°
2026-05-08 18:50 30.99992 -63.84968 35019 ft 521 kts 158°
2026-05-08 18:50 30.93600 -63.81100 35018 ft 521 kts 158°
2026-05-08 18:51 30.87161 -63.77210 35023 ft 521 kts 158°
2026-05-08 18:51 30.80724 -63.73327 35031 ft 521 kts 158°
2026-05-08 18:52 30.74327 -63.69474 35030 ft 521 kts 158°
2026-05-08 18:52 30.67892 -63.65604 35032 ft 521 kts 157°
2026-05-08 18:53 30.61512 -63.61807 35027 ft 505 kts 159°
2026-05-08 18:53 30.58409 -63.59987 35026 ft 494 kts 159°
2026-05-08 18:53 30.55374 -63.58195 35031 ft 484 kts 158°
2026-05-08 18:54 30.49446 -63.54649 35038 ft 478 kts 158°
2026-05-08 18:54 30.43579 -63.51104 35038 ft 480 kts 157°
2026-05-08 18:55 30.34682 -63.45778 35040 ft 479 kts 158°
2026-05-08 18:56 30.28770 -63.42253 35045 ft 478 kts 157°
2026-05-08 18:56 30.22847 -63.38715 35054 ft 479 kts 157°
2026-05-08 18:57 30.16948 -63.35199 35050 ft 481 kts 157°
2026-05-08 18:57 30.10990 -63.31661 35045 ft 481 kts 157°
2026-05-08 18:58 30.05042 -63.28138 35049 ft 481 kts 157°
2026-05-08 18:58 29.99074 -63.24588 35052 ft 484 kts 157°
2026-05-08 18:59 29.93125 -63.21075 35049 ft 483 kts 157°
2026-05-08 18:59 29.87154 -63.17557 35050 ft 482 kts 157°
2026-05-08 19:00 29.81202 -63.14052 35053 ft 479 kts 157°
2026-05-08 19:00 29.75270 -63.10547 35052 ft 480 kts 157°
2026-05-08 19:01 29.69282 -63.07147 35055 ft 479 kts 162°
2026-05-08 19:01 29.63029 -63.04734 35061 ft 478 kts 166°
2026-05-08 19:02 29.56676 -63.02318 35054 ft 483 kts 166°
2026-05-08 19:02 29.50271 -62.99863 35060 ft 488 kts 166°
2026-05-08 19:03 29.43803 -62.97394 35059 ft 493 kts 166°
2026-05-08 19:03 29.37306 -62.94925 35062 ft 497 kts 166°
2026-05-08 19:04 29.30707 -62.92422 35054 ft 501 kts 166°
2026-05-08 19:04 29.24067 -62.89906 35047 ft 505 kts 166°
2026-05-08 19:05 29.17374 -62.87373 35053 ft 507 kts 166°
2026-05-08 19:05 29.10657 -62.84837 35073 ft 508 kts 166°
2026-05-08 19:06 29.03988 -62.82321 35071 ft 509 kts 166°
2026-05-08 19:06 28.97256 -62.79781 35068 ft 509 kts 166°
2026-05-08 19:07 28.90517 -62.77239 35064 ft 510 kts 166°
2026-05-08 19:07 28.83786 -62.74711 35072 ft 510 kts 165°
2026-05-08 19:08 28.77092 -62.72196 35067 ft 510 kts 165°
2026-05-08 19:08 28.70358 -62.69674 35071 ft 509 kts 165°
2026-05-08 19:09 28.63633 -62.67149 35076 ft 509 kts 165°
2026-05-08 19:09 28.56895 -62.64628 35071 ft 509 kts 165°
2026-05-08 19:10 28.50197 -62.62113 35073 ft 512 kts 164°
2026-05-08 19:10 28.43415 -62.59549 35073 ft 515 kts 165°
2026-05-08 19:11 28.36589 -62.57011 35070 ft 515 kts 165°
2026-05-08 19:11 28.29775 -62.54489 35073 ft 516 kts 165°
2026-05-08 19:12 28.23001 -62.51980 35076 ft 515 kts 165°
2026-05-08 19:12 28.16188 -62.49462 35063 ft 515 kts 165°
2026-05-08 19:13 28.09394 -62.46933 35058 ft 514 kts 165°
2026-05-08 19:13 28.02594 -62.44399 35057 ft 515 kts 164°
2026-05-08 19:14 27.95831 -62.41892 35061 ft 515 kts 164°
2026-05-08 19:14 27.89028 -62.39395 35073 ft 513 kts 164°
2026-05-08 19:15 27.82231 -62.36882 35078 ft 515 kts 164°
2026-05-08 19:15 27.75384 -62.34356 35076 ft 518 kts 164°
2026-05-08 19:16 27.68537 -62.31840 35078 ft 517 kts 164°
2026-05-08 19:16 27.61732 -62.29346 35079 ft 517 kts 164°
2026-05-08 19:17 27.54888 -62.26840 35080 ft 517 kts 164°
2026-05-08 19:17 27.48039 -62.24334 35077 ft 517 kts 164°
2026-05-08 19:18 27.41188 -62.21831 35080 ft 517 kts 164°
2026-05-08 19:18 27.34388 -62.19348 35079 ft 517 kts 164°
2026-05-08 19:19 27.27539 -62.16852 35079 ft 517 kts 164°
2026-05-08 19:19 27.20692 -62.14359 35081 ft 517 kts 164°
2026-05-08 19:20 27.13846 -62.11869 35078 ft 517 kts 164°
2026-05-08 19:20 27.07047 -62.09399 35085 ft 517 kts 164°
2026-05-08 19:21 27.00208 -62.06918 35081 ft 517 kts 164°
2026-05-08 19:21 26.93365 -62.04438 35078 ft 517 kts 164°
2026-05-08 19:22 26.86520 -62.01960 35078 ft 517 kts 164°
2026-05-08 19:22 26.79687 -61.99490 35082 ft 516 kts 164°
2026-05-08 19:23 26.72890 -61.97036 35085 ft 516 kts 164°
2026-05-08 19:23 26.66060 -61.94573 35079 ft 516 kts 164°
2026-05-08 19:24 26.59221 -61.92110 35076 ft 516 kts 164°
2026-05-08 19:24 26.52393 -61.89653 35081 ft 516 kts 164°
2026-05-08 19:25 26.45609 -61.87216 35078 ft 515 kts 164°
2026-05-08 19:25 26.38784 -61.84766 35079 ft 515 kts 163°
2026-05-08 19:26 26.31963 -61.82322 35080 ft 515 kts 163°
2026-05-08 19:26 26.25147 -61.79882 35077 ft 514 kts 163°
2026-05-08 19:27 26.18381 -61.77462 35077 ft 514 kts 163°
2026-05-08 19:27 26.11583 -61.75035 35094 ft 513 kts 163°
2026-05-08 19:28 26.04779 -61.72608 35079 ft 513 kts 163°
2026-05-08 19:28 25.97988 -61.70189 35063 ft 513 kts 163°
2026-05-08 19:29 25.91239 -61.67787 35072 ft 512 kts 163°
2026-05-08 19:29 25.84456 -61.65376 35084 ft 512 kts 163°
2026-05-08 19:30 25.77672 -61.62968 35069 ft 512 kts 163°
2026-05-08 19:30 25.70889 -61.60563 35060 ft 512 kts 163°
2026-05-08 19:31 25.64111 -61.58163 35072 ft 511 kts 163°
2026-05-08 19:31 25.57375 -61.55781 35088 ft 511 kts 163°
2026-05-08 19:32 25.50598 -61.53386 35073 ft 511 kts 163°
2026-05-08 19:32 25.43819 -61.50994 35057 ft 511 kts 163°
2026-05-08 19:33 25.37048 -61.48607 35075 ft 511 kts 163°
2026-05-08 19:33 25.30266 -61.46220 35081 ft 511 kts 163°
2026-05-08 19:34 25.23537 -61.43854 35074 ft 511 kts 163°
2026-05-08 19:34 25.16758 -61.41473 35051 ft 511 kts 163°
2026-05-08 19:35 25.09983 -61.39097 35072 ft 511 kts 163°
2026-05-08 19:35 25.03204 -61.36722 35082 ft 511 kts 163°
2026-05-08 19:36 24.96464 -61.34364 35069 ft 511 kts 163°
2026-05-08 19:36 24.89687 -61.31994 35055 ft 511 kts 163°
2026-05-08 19:37 24.82911 -61.29628 35071 ft 511 kts 163°
2026-05-08 19:37 24.76123 -61.27261 35077 ft 511 kts 163°
2026-05-08 19:38 24.69333 -61.24895 35067 ft 512 kts 163°
2026-05-08 19:38 24.62593 -61.22550 35057 ft 512 kts 163°
2026-05-08 19:39 24.55810 -61.20192 35076 ft 512 kts 163°
2026-05-08 19:39 24.49017 -61.17834 35071 ft 512 kts 163°
2026-05-08 19:40 24.42231 -61.15480 35057 ft 512 kts 163°
2026-05-08 19:40 24.35480 -61.13142 35070 ft 512 kts 163°
2026-05-08 19:41 24.28679 -61.10789 35067 ft 512 kts 163°
2026-05-08 19:41 24.21886 -61.08441 35064 ft 512 kts 163°
2026-05-08 19:42 24.15081 -61.06092 35063 ft 513 kts 163°
2026-05-08 19:42 24.08273 -61.03744 35061 ft 513 kts 163°
2026-05-08 19:43 24.01510 -61.01414 35064 ft 513 kts 162°
2026-05-08 19:43 23.94701 -60.99072 35065 ft 513 kts 162°
2026-05-08 19:44 23.87895 -60.96732 35064 ft 513 kts 162°
2026-05-08 19:44 23.81075 -60.94390 35060 ft 514 kts 162°
2026-05-08 19:45 23.74299 -60.92067 35060 ft 514 kts 162°
2026-05-08 19:45 23.67482 -60.89731 35066 ft 514 kts 162°
2026-05-08 19:46 23.60659 -60.87396 35063 ft 514 kts 162°
2026-05-08 19:46 23.50412 -60.83895 35065 ft 514 kts 162°
2026-05-08 19:47 23.43626 -60.81579 35065 ft 514 kts 162°
2026-05-08 19:47 23.36800 -60.79252 35063 ft 515 kts 162°
2026-05-08 19:48 23.29962 -60.76923 35061 ft 515 kts 162°
2026-05-08 19:48 23.23127 -60.74598 35065 ft 515 kts 162°
2026-05-08 19:49 23.16333 -60.72289 35057 ft 515 kts 162°
2026-05-08 19:49 23.09499 -60.69970 35059 ft 515 kts 162°
2026-05-08 19:50 23.02654 -60.67648 35058 ft 515 kts 162°
2026-05-08 19:50 22.95808 -60.65329 35060 ft 515 kts 162°
2026-05-08 19:51 22.89010 -60.63029 35061 ft 515 kts 162°
2026-05-08 19:51 22.82173 -60.60718 35062 ft 515 kts 162°
2026-05-08 19:52 22.75328 -60.58407 35060 ft 515 kts 162°
2026-05-08 19:52 22.68493 -60.56102 35055 ft 515 kts 162°
2026-05-08 19:53 22.61652 -60.53797 35059 ft 515 kts 162°
2026-05-08 19:53 22.54859 -60.51510 35059 ft 514 kts 162°
2026-05-08 19:54 22.48030 -60.49214 35052 ft 514 kts 162°
2026-05-08 19:54 22.41184 -60.46914 35051 ft 514 kts 162°
2026-05-08 19:55 22.34395 -60.44636 35051 ft 514 kts 162°
2026-05-08 19:55 22.27570 -60.42348 35051 ft 514 kts 162°
2026-05-08 19:56 22.20735 -60.40060 35049 ft 514 kts 162°
2026-05-08 19:56 22.13910 -60.37776 35048 ft 514 kts 162°
2026-05-08 19:57 22.07074 -60.35492 35046 ft 514 kts 162°
2026-05-08 19:57 22.00285 -60.33225 35048 ft 514 kts 162°
2026-05-08 19:58 21.93457 -60.30948 35047 ft 514 kts 162°
2026-05-08 19:58 21.86619 -60.28670 35044 ft 514 kts 162°
2026-05-08 19:59 21.79781 -60.26394 35045 ft 514 kts 162°
2026-05-08 19:59 21.72952 -60.24123 35047 ft 514 kts 162°
2026-05-08 20:00 21.66162 -60.21868 35047 ft 514 kts 162°
2026-05-08 20:00 21.59335 -60.19602 35044 ft 514 kts 162°
2026-05-08 20:01 21.52500 -60.17336 35043 ft 514 kts 162°
2026-05-08 20:01 21.46361 -60.15303 35043 ft 514 kts 162°
2026-05-08 20:02 21.39523 -60.13040 35044 ft 514 kts 162°
2026-05-08 20:02 21.32700 -60.10783 35042 ft 514 kts 162°
2026-05-08 20:03 21.25914 -60.08541 35043 ft 514 kts 162°
2026-05-08 20:03 21.19078 -60.06285 35040 ft 514 kts 162°
2026-05-08 20:04 21.12242 -60.04030 35040 ft 514 kts 161°
2026-05-08 20:04 21.05403 -60.01777 35035 ft 514 kts 162°
2026-05-08 20:05 20.98605 -59.99538 35034 ft 515 kts 161°
2026-05-08 20:05 20.91780 -59.97228 35030 ft 515 kts 161°
2026-05-08 20:06 20.84954 -59.94898 35034 ft 515 kts 161°
2026-05-08 20:06 20.78120 -59.92576 35033 ft 515 kts 161°
2026-05-08 20:07 20.71327 -59.90274 35031 ft 516 kts 161°
2026-05-08 20:07 20.64492 -59.87960 35032 ft 516 kts 161°
2026-05-08 20:08 20.57648 -59.85645 35034 ft 516 kts 161°
2026-05-08 20:08 20.50804 -59.83333 35033 ft 516 kts 161°
2026-05-08 20:09 20.43966 -59.81024 35036 ft 516 kts 161°
2026-05-08 20:09 20.37167 -59.78732 35036 ft 515 kts 161°
2026-05-08 20:10 20.30330 -59.76428 35034 ft 515 kts 161°
2026-05-08 20:10 20.23497 -59.74127 35033 ft 515 kts 161°
2026-05-08 20:11 20.17826 -59.72220 35032 ft 514 kts 161°
2026-05-08 20:11 20.11002 -59.69926 35031 ft 514 kts 161°
2026-05-08 20:12 20.03076 -59.67266 35031 ft 513 kts 161°
2026-05-08 20:12 19.96267 -59.64982 35028 ft 513 kts 161°
2026-05-08 20:13 19.90606 -59.63085 35023 ft 513 kts 161°
2026-05-08 20:13 19.83802 -59.60806 35023 ft 512 kts 161°
2026-05-08 20:14 19.75900 -59.58163 35020 ft 512 kts 161°
2026-05-08 20:14 19.70212 -59.56262 35020 ft 512 kts 161°
2026-05-08 20:15 19.63464 -59.54008 35021 ft 512 kts 161°
2026-05-08 20:15 19.56672 -59.51742 35018 ft 512 kts 161°
2026-05-08 20:16 19.49880 -59.49478 35016 ft 512 kts 161°
2026-05-08 20:16 19.43477 -59.47346 35018 ft 512 kts 161°
2026-05-08 20:17 19.36680 -59.45084 35016 ft 512 kts 160°
2026-05-08 20:17 19.29886 -59.42825 35015 ft 512 kts 160°
2026-05-08 20:18 19.23091 -59.40568 35016 ft 512 kts 160°
2026-05-08 20:18 19.16346 -59.38329 35012 ft 512 kts 160°
2026-05-08 20:19 19.09548 -59.36075 35012 ft 512 kts 160°
2026-05-08 20:19 19.02748 -59.33822 35014 ft 512 kts 160°
2026-05-08 20:20 18.95940 -59.31568 35002 ft 512 kts 160°
2026-05-08 20:20 18.89187 -59.29334 35016 ft 512 kts 160°
2026-05-08 20:21 18.82384 -59.27086 35020 ft 512 kts 160°
2026-05-08 20:21 18.75580 -59.24840 34998 ft 512 kts 160°
2026-05-08 20:22 18.68776 -59.22595 35001 ft 512 kts 160°
2026-05-08 20:22 18.62017 -59.20367 35017 ft 512 kts 160°
2026-05-08 20:23 18.55213 -59.18125 35017 ft 512 kts 160°
2026-05-08 20:23 18.48410 -59.15886 35000 ft 512 kts 160°
2026-05-08 20:24 18.41614 -59.13652 34996 ft 512 kts 160°
2026-05-08 20:24 18.34811 -59.11417 35015 ft 512 kts 160°
2026-05-08 20:25 18.28056 -59.09199 35013 ft 512 kts 160°
2026-05-08 20:25 18.21256 -59.06968 34997 ft 512 kts 160°
2026-05-08 20:26 18.14458 -59.04740 35002 ft 511 kts 160°
2026-05-08 20:26 18.07664 -59.02515 35017 ft 511 kts 160°
2026-05-08 20:27 18.00881 -59.00294 34999 ft 511 kts 160°
2026-05-08 20:27 17.94166 -58.98004 35008 ft 510 kts 159°
2026-05-08 20:28 17.87447 -58.95600 35007 ft 510 kts 159°
2026-05-08 20:28 17.80732 -58.93222 35004 ft 510 kts 159°
2026-05-08 20:29 17.74007 -58.90856 35001 ft 510 kts 159°
2026-05-08 20:29 17.67330 -58.88510 35009 ft 509 kts 159°
2026-05-08 20:30 17.60610 -58.86151 35004 ft 509 kts 159°
2026-05-08 20:30 17.53893 -58.83795 35000 ft 509 kts 159°
2026-05-08 20:31 17.47177 -58.81440 34999 ft 509 kts 159°
2026-05-08 20:31 17.40508 -58.79104 35000 ft 509 kts 159°
2026-05-08 20:32 17.33794 -58.76753 35001 ft 509 kts 159°
2026-05-08 20:32 17.27087 -58.74408 34996 ft 509 kts 159°
2026-05-08 20:33 17.20372 -58.72061 34994 ft 509 kts 159°
2026-05-08 20:33 17.13703 -58.69731 34999 ft 509 kts 159°
2026-05-08 20:34 17.06989 -58.67388 34996 ft 509 kts 159°
2026-05-08 20:35 16.96920 -58.63878 34991 ft 508 kts 159°
2026-05-08 20:35 16.90208 -58.61540 34994 ft 508 kts 159°
2026-05-08 20:36 16.83498 -58.59204 35000 ft 508 kts 159°
2026-05-08 20:36 16.76846 -58.56890 34995 ft 507 kts 159°
2026-05-08 20:37 16.70150 -58.54563 34995 ft 507 kts 159°
2026-05-08 20:37 16.63464 -58.52241 34995 ft 506 kts 159°
2026-05-08 20:38 16.56791 -58.49925 34994 ft 505 kts 159°
2026-05-08 20:38 16.50177 -58.47631 34997 ft 504 kts 159°
2026-05-08 20:39 16.43533 -58.45328 34996 ft 502 kts 160°
2026-05-08 20:39 16.36907 -58.43033 34993 ft 501 kts 160°
2026-05-08 20:40 16.30300 -58.40746 34992 ft 500 kts 160°
2026-05-08 20:40 16.23750 -58.38481 34986 ft 499 kts 160°
2026-05-08 20:41 16.17172 -58.36207 34990 ft 497 kts 160°
2026-05-08 20:41 16.10617 -58.33943 34986 ft 496 kts 160°
2026-05-08 20:42 16.04102 -58.31694 34984 ft 496 kts 161°
2026-05-08 20:42 15.97570 -58.29441 34980 ft 495 kts 161°
2026-05-08 20:43 15.91040 -58.27191 34974 ft 494 kts 161°
2026-05-08 20:43 15.84519 -58.24945 34976 ft 493 kts 161°
2026-05-08 20:44 15.78005 -58.22704 34978 ft 493 kts 162°
2026-05-08 20:44 15.71542 -58.20482 34978 ft 492 kts 162°
2026-05-08 20:45 15.65044 -58.18248 34974 ft 492 kts 162°
2026-05-08 20:45 15.58560 -58.16021 34971 ft 491 kts 162°
2026-05-08 20:46 15.52076 -58.13797 34967 ft 490 kts 163°
2026-05-08 20:46 15.45598 -58.11575 34971 ft 490 kts 163°
2026-05-08 20:47 15.39170 -58.09372 34972 ft 490 kts 163°
2026-05-08 20:47 15.32706 -58.07157 34970 ft 489 kts 163°
2026-05-08 20:48 15.26252 -58.04948 34972 ft 488 kts 164°
2026-05-08 20:48 15.19810 -58.02744 34975 ft 487 kts 164°
2026-05-08 20:49 15.13432 -58.00564 34972 ft 486 kts 164°
2026-05-08 20:49 15.07009 -57.98370 34976 ft 485 kts 165°
2026-05-08 20:50 15.00612 -57.96186 34968 ft 484 kts 165°
2026-05-08 20:50 14.94223 -57.94007 34979 ft 483 kts 165°
2026-05-08 20:51 14.87889 -57.91847 34964 ft 482 kts 165°
2026-05-08 20:51 14.81528 -57.89680 34958 ft 481 kts 165°
2026-05-08 20:52 14.75188 -57.87521 34972 ft 479 kts 166°
2026-05-08 20:52 14.68851 -57.85365 34971 ft 479 kts 166°
2026-05-08 20:53 14.62570 -57.83229 34957 ft 478 kts 166°
2026-05-08 20:53 14.56255 -57.81082 34957 ft 478 kts 166°
2026-05-08 20:54 14.49952 -57.78941 34964 ft 477 kts 166°
2026-05-08 20:54 14.43653 -57.76803 34963 ft 476 kts 166°
2026-05-08 20:55 14.37362 -57.74668 34945 ft 476 kts 166°
2026-05-08 20:55 14.31115 -57.72550 34956 ft 475 kts 166°
2026-05-08 20:56 14.24833 -57.70421 34956 ft 475 kts 167°
2026-05-08 20:56 14.18556 -57.68295 34958 ft 475 kts 167°
2026-05-08 20:57 14.12284 -57.66172 34960 ft 474 kts 167°
2026-05-08 20:57 14.06061 -57.64067 34955 ft 474 kts 167°
2026-05-08 20:58 13.99811 -57.61953 34956 ft 473 kts 167°
2026-05-08 20:58 13.93560 -57.59841 34959 ft 472 kts 167°
2026-05-08 20:59 13.87317 -57.57733 34959 ft 472 kts 167°
2026-05-08 20:59 13.81081 -57.55629 34957 ft 471 kts 167°
2026-05-08 21:00 13.74895 -57.53543 34953 ft 471 kts 168°
2026-05-08 21:00 13.68676 -57.51446 34959 ft 470 kts 168°
2026-05-08 21:01 13.62467 -57.49354 34953 ft 469 kts 168°
2026-05-08 21:01 13.56268 -57.47268 34949 ft 469 kts 168°
2026-05-08 21:02 13.50117 -57.45198 34957 ft 468 kts 168°
2026-05-08 21:02 13.43932 -57.43117 34953 ft 467 kts 168°
2026-05-08 21:03 13.37764 -57.41044 34952 ft 466 kts 168°
2026-05-08 21:03 13.31599 -57.38973 34956 ft 465 kts 168°
2026-05-08 21:04 13.25446 -57.36908 34954 ft 465 kts 168°
2026-05-08 21:04 13.19338 -57.34859 34944 ft 465 kts 168°
2026-05-08 21:05 13.13188 -57.32797 34944 ft 465 kts 168°
2026-05-08 21:05 13.07039 -57.30736 34946 ft 465 kts 168°
2026-05-08 21:06 13.00885 -57.28688 34942 ft 465 kts 168°
2026-05-08 21:06 12.94768 -57.26659 34942 ft 465 kts 168°
2026-05-08 21:07 12.88611 -57.24615 34941 ft 466 kts 168°
2026-05-08 21:07 12.82436 -57.22565 34938 ft 467 kts 168°
2026-05-08 21:08 12.76250 -57.20512 34937 ft 468 kts 168°
2026-05-08 21:08 12.70092 -57.18470 34936 ft 469 kts 168°
2026-05-08 21:09 12.63881 -57.16410 34936 ft 470 kts 168°
2026-05-08 21:09 12.57658 -57.14348 34941 ft 470 kts 168°
2026-05-08 21:10 12.51429 -57.12285 34945 ft 471 kts 168°
2026-05-08 21:10 12.45205 -57.10225 34948 ft 471 kts 168°
2026-05-08 21:11 12.39016 -57.08177 34951 ft 470 kts 168°
2026-05-08 21:11 12.32790 -57.06118 34949 ft 470 kts 168°
2026-05-08 21:12 12.26570 -57.04062 34949 ft 469 kts 168°
2026-05-08 21:12 12.20355 -57.02010 34946 ft 469 kts 168°
2026-05-08 21:13 12.14184 -56.99973 34942 ft 469 kts 168°
2026-05-08 21:13 12.07972 -56.97923 34940 ft 469 kts 168°
2026-05-08 21:14 12.01765 -56.95876 34935 ft 469 kts 168°
2026-05-08 21:14 11.95540 -56.93824 34939 ft 470 kts 168°
2026-05-08 21:15 11.89359 -56.91787 34936 ft 470 kts 168°
2026-05-08 21:15 11.83131 -56.89735 34939 ft 470 kts 168°
2026-05-08 21:16 11.76899 -56.87683 34934 ft 471 kts 168°
2026-05-08 21:16 11.70669 -56.85633 34934 ft 471 kts 168°
2026-05-08 21:17 11.64469 -56.83594 34937 ft 471 kts 168°
2026-05-08 21:17 11.58224 -56.81541 34939 ft 472 kts 168°
2026-05-08 21:18 11.51976 -56.79489 34939 ft 472 kts 168°
2026-05-08 21:18 11.45728 -56.77437 34935 ft 472 kts 168°
2026-05-08 21:19 11.39520 -56.75399 34938 ft 472 kts 168°
2026-05-08 21:19 11.33279 -56.73351 34940 ft 472 kts 168°
2026-05-08 21:20 11.27032 -56.71303 34938 ft 471 kts 168°
2026-05-08 21:20 11.20788 -56.69255 34935 ft 471 kts 168°
2026-05-08 21:21 11.14546 -56.67210 34938 ft 471 kts 168°
2026-05-08 21:21 11.08348 -56.65180 34933 ft 471 kts 168°
2026-05-08 21:22 11.02112 -56.63138 34928 ft 471 kts 168°
2026-05-08 21:22 10.95879 -56.61098 34929 ft 470 kts 168°
2026-05-08 21:23 10.89654 -56.59061 34946 ft 470 kts 168°
2026-05-08 21:23 10.83469 -56.57039 34937 ft 470 kts 168°
2026-05-08 21:24 10.77244 -56.55005 34936 ft 470 kts 168°
2026-05-08 21:24 10.71018 -56.52971 34924 ft 470 kts 168°
2026-05-08 21:25 10.64795 -56.50913 34928 ft 470 kts 168°
2026-05-08 21:25 10.58573 -56.48834 34925 ft 471 kts 168°
2026-05-08 21:26 10.52396 -56.46777 34926 ft 471 kts 168°
2026-05-08 21:26 10.46165 -56.44705 34915 ft 471 kts 168°
2026-05-08 21:27 10.39930 -56.42633 34927 ft 472 kts 168°
2026-05-08 21:27 10.33690 -56.40561 34929 ft 472 kts 168°
2026-05-08 21:28 10.27487 -56.38502 34920 ft 472 kts 168°
2026-05-08 21:28 10.21238 -56.36428 34924 ft 473 kts 168°
2026-05-08 21:29 10.14993 -56.34356 34921 ft 473 kts 168°
2026-05-08 21:29 10.08738 -56.32282 34927 ft 473 kts 168°
2026-05-08 21:30 10.02481 -56.30208 34920 ft 473 kts 167°
2026-05-08 21:30 9.96264 -56.28148 34920 ft 473 kts 167°
2026-05-08 21:31 9.90006 -56.26076 34926 ft 473 kts 167°
2026-05-08 21:31 9.83742 -56.24002 34917 ft 474 kts 167°
2026-05-08 21:32 9.77475 -56.21928 34923 ft 474 kts 167°
2026-05-08 21:32 9.71249 -56.19869 34917 ft 474 kts 167°
2026-05-08 21:33 9.64981 -56.17795 34919 ft 474 kts 167°
2026-05-08 21:33 9.59393 -56.15949 34917 ft 474 kts 167°
2026-05-08 21:34 9.53121 -56.13876 34919 ft 474 kts 167°
2026-05-08 21:34 9.46845 -56.11803 34919 ft 474 kts 167°
2026-05-08 21:35 9.40647 -56.09757 34919 ft 474 kts 167°
2026-05-08 21:35 9.34341 -56.07675 34915 ft 474 kts 167°
2026-05-08 21:36 9.28066 -56.05605 34916 ft 474 kts 167°
2026-05-08 21:36 9.21795 -56.03536 34918 ft 474 kts 167°
2026-05-08 21:37 9.15523 -56.01469 34919 ft 474 kts 167°
2026-05-08 21:37 9.09290 -55.99419 34917 ft 473 kts 168°
2026-05-08 21:38 9.02921 -55.97891 34915 ft 469 kts 173°
2026-05-08 21:38 8.96543 -55.96477 34911 ft 467 kts 173°
2026-05-08 21:38 8.93412 -55.95799 34916 ft 456 kts 174°
2026-05-08 21:39 8.90349 -55.95146 34915 ft 454 kts 173°
2026-05-08 21:39 8.84152 -55.93762 34916 ft 459 kts 172°
2026-05-08 21:40 8.77850 -55.92300 34916 ft 469 kts 172°
2026-05-08 21:40 8.71465 -55.90847 34916 ft 471 kts 172°
2026-05-08 21:41 8.61920 -55.88709 34918 ft 471 kts 173°
2026-05-08 21:41 8.55525 -55.87280 34911 ft 471 kts 172°
2026-05-08 21:42 8.49130 -55.85851 34913 ft 471 kts 173°
2026-05-08 21:42 8.42733 -55.84422 34916 ft 471 kts 173°
2026-05-08 21:43 8.36377 -55.83004 34913 ft 471 kts 173°
2026-05-08 21:43 8.29976 -55.81577 34914 ft 471 kts 173°
2026-05-08 21:44 8.23587 -55.80153 34911 ft 471 kts 173°
2026-05-08 21:44 8.17180 -55.78725 34910 ft 472 kts 173°
2026-05-08 21:45 8.10770 -55.77296 34917 ft 472 kts 173°
2026-05-08 21:45 8.04399 -55.75877 34915 ft 472 kts 173°
2026-05-08 21:46 7.97983 -55.74448 34914 ft 472 kts 173°
2026-05-08 21:46 7.91564 -55.73019 34910 ft 472 kts 173°
2026-05-08 21:47 7.85143 -55.71589 34907 ft 473 kts 173°
2026-05-08 21:47 7.78763 -55.70169 34906 ft 473 kts 172°
2026-05-08 21:48 7.72338 -55.68740 34923 ft 473 kts 173°
2026-05-08 21:48 7.65920 -55.67312 34913 ft 473 kts 173°
2026-05-08 21:49 7.59495 -55.65883 34904 ft 473 kts 172°
2026-05-08 21:49 7.53066 -55.64454 34918 ft 473 kts 172°
2026-05-08 21:50 7.46684 -55.63036 34920 ft 473 kts 172°
2026-05-08 21:50 7.40259 -55.61608 34913 ft 473 kts 172°
2026-05-08 21:51 7.33843 -55.60183 34914 ft 473 kts 172°
2026-05-08 21:51 7.27420 -55.58757 34912 ft 473 kts 172°
2026-05-08 21:52 7.21042 -55.57341 34918 ft 472 kts 172°
2026-05-08 21:52 7.14623 -55.55916 34915 ft 472 kts 172°
2026-05-08 21:53 7.08204 -55.54492 34917 ft 472 kts 172°
2026-05-08 21:53 7.01787 -55.53069 34918 ft 472 kts 172°
2026-05-08 21:54 6.95370 -55.51646 34917 ft 472 kts 172°
2026-05-08 21:54 6.88997 -55.50233 34912 ft 472 kts 172°
2026-05-08 21:55 6.82587 -55.48812 34913 ft 472 kts 172°
2026-05-08 21:56 6.72966 -55.46681 34911 ft 472 kts 172°
2026-05-08 21:56 6.66594 -55.45269 34914 ft 472 kts 172°
2026-05-08 21:57 6.60180 -55.43849 34917 ft 472 kts 172°
2026-05-08 21:57 6.53768 -55.42430 34913 ft 472 kts 172°
2026-05-08 21:58 6.47357 -55.41011 34913 ft 472 kts 172°
2026-05-08 21:58 6.40953 -55.39595 34916 ft 472 kts 172°
2026-05-08 21:59 6.34585 -55.38186 34918 ft 471 kts 172°
2026-05-08 21:59 6.28180 -55.36770 34915 ft 471 kts 172°
2026-05-08 22:00 6.21776 -55.35354 34912 ft 471 kts 172°
2026-05-08 22:00 6.16001 -55.34077 34912 ft 471 kts 172°
2026-05-08 22:01 6.09607 -55.32664 34905 ft 471 kts 172°
2026-05-08 22:01 6.03247 -55.31259 34899 ft 471 kts 172°
2026-05-08 22:02 5.96851 -55.29847 34893 ft 471 kts 172°
2026-05-08 22:02 5.90461 -55.28435 34887 ft 471 kts 172°
2026-05-08 22:03 5.84062 -55.27023 34911 ft 471 kts 172°
2026-05-08 22:03 5.77705 -55.25623 34909 ft 470 kts 172°
2026-05-08 22:04 5.71304 -55.24211 34911 ft 472 kts 171°
2026-05-08 22:04 5.64890 -55.22795 34908 ft 472 kts 171°
2026-05-08 22:05 5.58460 -55.21377 34911 ft 473 kts 171°
2026-05-08 22:05 5.52031 -55.19959 34914 ft 474 kts 171°
2026-05-08 22:06 5.45627 -55.18547 34912 ft 474 kts 171°
2026-05-08 22:06 5.39150 -55.17440 34907 ft 473 kts 174°
2026-05-08 22:07 5.32659 -55.16370 34909 ft 473 kts 174°
2026-05-08 22:07 5.26159 -55.15292 34911 ft 473 kts 174°
2026-05-08 22:08 5.19702 -55.14221 34917 ft 473 kts 174°
2026-05-08 22:08 5.13201 -55.13144 34914 ft 474 kts 174°
2026-05-08 22:09 5.06699 -55.12067 34913 ft 474 kts 174°
2026-05-08 22:09 5.00196 -55.10990 34914 ft 474 kts 174°
2026-05-08 22:10 4.93741 -55.09921 34914 ft 474 kts 174°
2026-05-08 22:10 4.87235 -55.08844 34909 ft 474 kts 174°
2026-05-08 22:11 4.80726 -55.07766 34908 ft 473 kts 174°
2026-05-08 22:11 4.74231 -55.06692 34909 ft 473 kts 174°
2026-05-08 22:12 4.67768 -55.05622 34909 ft 473 kts 174°
2026-05-08 22:12 4.61272 -55.04548 34908 ft 474 kts 174°
2026-05-08 22:13 4.54765 -55.03472 34907 ft 474 kts 174°
2026-05-08 22:13 4.48256 -55.02394 34905 ft 474 kts 173°
2026-05-08 22:14 4.41749 -55.01317 34905 ft 474 kts 173°
2026-05-08 22:14 4.35241 -55.00242 34904 ft 475 kts 173°
2026-05-08 22:15 4.28762 -54.99172 34905 ft 475 kts 173°
2026-05-08 22:15 4.22237 -54.98095 34903 ft 475 kts 173°
2026-05-08 22:16 4.15702 -54.97016 34902 ft 476 kts 173°
2026-05-08 22:16 4.09168 -54.95935 34907 ft 477 kts 173°
2026-05-08 22:17 4.02664 -54.94861 34908 ft 477 kts 173°
2026-05-08 22:17 3.96107 -54.93778 34908 ft 477 kts 173°
2026-05-08 22:18 3.89555 -54.92696 34904 ft 478 kts 173°
2026-05-08 22:18 3.82988 -54.91612 34908 ft 478 kts 173°
2026-05-08 22:19 3.76464 -54.90535 34909 ft 478 kts 172°
2026-05-08 22:19 3.69892 -54.89450 34909 ft 479 kts 173°
2026-05-08 22:20 3.63322 -54.88367 34908 ft 479 kts 172°
2026-05-08 22:20 3.56739 -54.87281 34912 ft 479 kts 173°
2026-05-08 22:21 3.50202 -54.86203 34913 ft 480 kts 172°
2026-05-08 22:21 3.43616 -54.85115 34911 ft 480 kts 172°
2026-05-08 22:22 3.37022 -54.84029 34912 ft 480 kts 172°
2026-05-08 22:22 3.30428 -54.82941 34917 ft 480 kts 172°
2026-05-08 22:23 3.23871 -54.81861 34915 ft 481 kts 172°
2026-05-08 22:23 3.17273 -54.80774 34917 ft 481 kts 172°
2026-05-08 22:24 3.10660 -54.79684 34924 ft 480 kts 172°
2026-05-08 22:24 3.04116 -54.78606 34916 ft 476 kts 172°
2026-05-08 22:25 2.97564 -54.77526 34914 ft 477 kts 172°
2026-05-08 22:25 2.91052 -54.76453 34920 ft 477 kts 172°
2026-05-08 22:26 2.84504 -54.75374 34922 ft 477 kts 172°
2026-05-08 22:26 2.77944 -54.74294 34922 ft 478 kts 172°
2026-05-08 22:27 2.71381 -54.73214 34920 ft 478 kts 172°
2026-05-08 22:27 2.64859 -54.72139 34924 ft 478 kts 172°
2026-05-08 22:28 2.58298 -54.71061 34926 ft 478 kts 172°
2026-05-08 22:28 2.51723 -54.69975 34927 ft 479 kts 171°
2026-05-08 22:29 2.45309 -54.68198 34925 ft 480 kts 160°
2026-05-08 22:29 2.39258 -54.65345 34925 ft 481 kts 154°
2026-05-08 22:30 2.33303 -54.62396 34928 ft 481 kts 155°
2026-05-08 22:30 2.27295 -54.59443 34925 ft 481 kts 155°
2026-05-08 22:31 2.21290 -54.56489 34926 ft 481 kts 155°
2026-05-08 22:31 2.15280 -54.53531 34925 ft 481 kts 155°
2026-05-08 22:32 2.09270 -54.50572 34927 ft 481 kts 155°
2026-05-08 22:32 2.03298 -54.47633 34922 ft 482 kts 154°
2026-05-08 22:33 1.97291 -54.44677 34922 ft 482 kts 154°
2026-05-08 22:33 1.91272 -54.41714 34927 ft 482 kts 154°
2026-05-08 22:34 1.85261 -54.38758 34928 ft 482 kts 154°
2026-05-08 22:34 1.79248 -54.35800 34926 ft 482 kts 154°
2026-05-08 22:35 1.73278 -54.32864 34929 ft 481 kts 154°
2026-05-08 22:35 1.67266 -54.29907 34927 ft 481 kts 155°
2026-05-08 22:36 1.61253 -54.26950 34991 ft 482 kts 155°
2026-05-08 22:36 1.58243 -54.25470 35144 ft 482 kts 155°
2026-05-08 22:36 1.55236 -54.23990 35278 ft 481 kts 155°
2026-05-08 22:36 1.52268 -54.22531 35424 ft 481 kts 155°
2026-05-08 22:37 1.49225 -54.21034 35568 ft 481 kts 155°
2026-05-08 22:37 1.46266 -54.19579 35709 ft 481 kts 155°
2026-05-08 22:37 1.43266 -54.18103 35851 ft 481 kts 155°
2026-05-08 22:37 1.40266 -54.16629 36003 ft 480 kts 155°
2026-05-08 22:38 1.37271 -54.15156 36154 ft 480 kts 155°
2026-05-08 22:38 1.34275 -54.13683 36313 ft 480 kts 155°
2026-05-08 22:38 1.31281 -54.12210 36470 ft 479 kts 155°
2026-05-08 22:38 1.28288 -54.10738 36618 ft 479 kts 155°
2026-05-08 22:39 1.25297 -54.09267 36781 ft 479 kts 155°
2026-05-08 22:39 1.22345 -54.07816 36903 ft 479 kts 155°
2026-05-08 22:39 1.19354 -54.06345 36927 ft 479 kts 155°
2026-05-08 22:40 1.13390 -54.03413 36930 ft 477 kts 155°
2026-05-08 22:40 1.07428 -54.00482 36929 ft 478 kts 155°
2026-05-08 22:41 1.01486 -53.97560 36933 ft 477 kts 155°
2026-05-08 22:41 0.95525 -53.94631 36934 ft 478 kts 155°
2026-05-08 22:42 0.89601 -53.91719 36936 ft 478 kts 155°
2026-05-08 22:42 0.83637 -53.88787 36939 ft 478 kts 155°
2026-05-08 22:43 0.77673 -53.85855 36935 ft 478 kts 155°
2026-05-08 22:43 0.72721 -53.83421 36934 ft 478 kts 155°
2026-05-08 22:44 0.66757 -53.80491 36938 ft 478 kts 155°
2026-05-08 22:44 0.59831 -53.77086 36937 ft 477 kts 155°
2026-05-08 22:45 0.53874 -53.74158 36940 ft 477 kts 155°
2026-05-08 22:45 0.48923 -53.71725 36935 ft 477 kts 155°
2026-05-08 22:46 0.42971 -53.68800 36931 ft 477 kts 155°
2026-05-08 22:46 0.36060 -53.65403 36932 ft 476 kts 155°
2026-05-08 22:47 0.31084 -53.62957 36927 ft 476 kts 155°
2026-05-08 22:47 0.25179 -53.60055 36928 ft 476 kts 155°
2026-05-08 22:48 0.19240 -53.57128 36912 ft 476 kts 155°
2026-05-08 22:48 0.13300 -53.54199 36927 ft 476 kts 155°
2026-05-08 22:49 0.07359 -53.51271 36930 ft 476 kts 155°
2026-05-08 22:49 -0.01517 -53.46897 36925 ft 476 kts 155°
2026-05-08 22:50 -0.07457 -53.43970 36902 ft 477 kts 155°
2026-05-08 22:50 -0.13407 -53.41037 36916 ft 477 kts 154°
2026-05-08 22:51 -0.19359 -53.38103 36928 ft 477 kts 154°
2026-05-08 22:51 -0.25273 -53.35188 36925 ft 477 kts 154°
2026-05-08 22:52 -0.31229 -53.32253 36903 ft 478 kts 154°
2026-05-08 22:52 -0.37183 -53.29317 36909 ft 478 kts 154°
2026-05-08 22:53 -0.43143 -53.26379 36932 ft 478 kts 154°
2026-05-08 22:53 -0.48480 -53.23748 36931 ft 478 kts 154°
2026-05-08 22:54 -0.54448 -53.20805 36936 ft 479 kts 154°
2026-05-08 22:54 -0.60426 -53.17858 36912 ft 479 kts 155°
2026-05-08 22:55 -0.66372 -53.14927 36905 ft 480 kts 155°
2026-05-08 22:55 -0.72362 -53.11975 36932 ft 480 kts 155°
2026-05-08 22:56 -0.78358 -53.09020 36941 ft 481 kts 155°
2026-05-08 22:56 -0.84363 -53.06059 36913 ft 482 kts 155°
2026-05-08 22:57 -0.90373 -53.03096 36899 ft 482 kts 155°
2026-05-08 22:57 -0.96389 -53.00130 36920 ft 482 kts 155°
2026-05-08 22:58 -1.02364 -52.97184 36935 ft 482 kts 155°
2026-05-08 22:58 -1.08380 -52.94218 36922 ft 482 kts 155°
2026-05-08 22:59 -1.14402 -52.91248 36897 ft 483 kts 155°
2026-05-08 22:59 -1.20387 -52.88296 36900 ft 483 kts 155°
2026-05-08 23:00 -1.26411 -52.85326 36919 ft 483 kts 155°
2026-05-08 23:00 -1.32441 -52.82358 36916 ft 482 kts 155°
2026-05-08 23:01 -1.38460 -52.79414 36887 ft 481 kts 155°
2026-05-08 23:01 -1.44421 -52.76484 36888 ft 480 kts 155°
2026-05-08 23:02 -1.50354 -52.73575 36924 ft 467 kts 155°
2026-05-08 23:02 -1.56077 -52.70762 36914 ft 450 kts 155°
2026-05-08 23:03 -1.61588 -52.68045 36890 ft 435 kts 155°
2026-05-08 23:03 -1.66900 -52.65421 36883 ft 417 kts 155°
2026-05-08 23:04 -1.71967 -52.62919 36895 ft 400 kts 155°
2026-05-08 23:04 -1.76888 -52.60557 36682 ft 389 kts 156°
2026-05-08 23:05 -1.79349 -52.59430 36353 ft 390 kts 157°
2026-05-08 23:05 -1.81832 -52.58331 36009 ft 391 kts 158°
2026-05-08 23:05 -1.84330 -52.57264 35751 ft 390 kts 159°
2026-05-08 23:05 -1.86830 -52.56234 35546 ft 387 kts 159°
2026-05-08 23:06 -1.89292 -52.55256 35343 ft 384 kts 160°
2026-05-08 23:06 -1.91780 -52.54307 35160 ft 381 kts 161°
2026-05-08 23:06 -1.94265 -52.53400 34928 ft 379 kts 162°
2026-05-08 23:06 -1.96750 -52.52535 34690 ft 377 kts 163°
2026-05-08 23:07 -1.99238 -52.51710 34457 ft 376 kts 163°
2026-05-08 23:07 -2.01728 -52.50925 34233 ft 374 kts 165°
2026-05-08 23:07 -2.04210 -52.50184 34019 ft 372 kts 165°
2026-05-08 23:07 -2.06694 -52.49486 33800 ft 370 kts 166°
2026-05-08 23:08 -2.09174 -52.48834 33565 ft 367 kts 167°
2026-05-08 23:08 -2.11648 -52.48229 33335 ft 365 kts 168°
2026-05-08 23:08 -2.14088 -52.47679 33100 ft 363 kts 169°
2026-05-08 23:08 -2.16552 -52.47172 32858 ft 360 kts 170°
2026-05-08 23:09 -2.19011 -52.46715 32632 ft 358 kts 171°
2026-05-08 23:09 -2.21464 -52.46311 32396 ft 356 kts 172°
2026-05-08 23:09 -2.23911 -52.45959 32164 ft 354 kts 174°
2026-05-08 23:09 -2.26345 -52.45662 31934 ft 352 kts 175°
2026-05-08 23:10 -2.28778 -52.45420 31707 ft 350 kts 176°
2026-05-08 23:10 -2.31202 -52.45233 31495 ft 348 kts 177°
2026-05-08 23:10 -2.33614 -52.45103 31284 ft 346 kts 179°
2026-05-08 23:10 -2.35984 -52.45032 31069 ft 344 kts 180°
2026-05-08 23:11 -2.38373 -52.45021 30859 ft 342 kts 181°
2026-05-08 23:11 -2.40742 -52.45069 30651 ft 340 kts 182°
2026-05-08 23:11 -2.43107 -52.45177 30443 ft 338 kts 184°
2026-05-08 23:11 -2.45448 -52.45346 30225 ft 337 kts 185°
2026-05-08 23:12 -2.47773 -52.45575 30002 ft 335 kts 187°
2026-05-08 23:12 -2.50083 -52.45866 29737 ft 334 kts 188°
2026-05-08 23:12 -2.52377 -52.46216 29477 ft 333 kts 189°
2026-05-08 23:12 -2.54652 -52.46627 29215 ft 331 kts 191°
2026-05-08 23:13 -2.56871 -52.47092 28976 ft 329 kts 193°
2026-05-08 23:13 -2.59092 -52.47622 28734 ft 328 kts 194°
2026-05-08 23:13 -2.61294 -52.48214 28472 ft 327 kts 196°
2026-05-08 23:13 -2.63466 -52.48867 28231 ft 325 kts 197°
2026-05-08 23:14 -2.65609 -52.49582 27990 ft 324 kts 199°
2026-05-08 23:14 -2.67719 -52.50359 27744 ft 323 kts 201°
2026-05-08 23:14 -2.69796 -52.51199 27515 ft 321 kts 202°
2026-05-08 23:14 -2.71813 -52.52091 27288 ft 320 kts 204°
2026-05-08 23:15 -2.73814 -52.53056 27056 ft 319 kts 206°
2026-05-08 23:15 -2.75777 -52.54086 26831 ft 318 kts 208°
2026-05-08 23:15 -2.77699 -52.55181 26601 ft 317 kts 210°
2026-05-08 23:15 -2.79575 -52.56339 26380 ft 316 kts 212°
2026-05-08 23:16 -2.81403 -52.57558 26163 ft 315 kts 214°
2026-05-08 23:16 -2.82813 -52.58566 25983 ft 318 kts 215°
2026-05-08 23:16 -2.84644 -52.59881 26026 ft 327 kts 210°
2026-05-08 23:16 -2.86752 -52.60641 25969 ft 335 kts 181°
2026-05-08 23:17 -2.89041 -52.60256 26017 ft 338 kts 152°
2026-05-08 23:17 -2.90888 -52.58851 26412 ft 330 kts 132°
2026-05-08 23:17 -2.92403 -52.57223 27263 ft 311 kts 133°
2026-05-08 23:17 -2.93700 -52.55504 27507 ft 314 kts 114°
2026-05-08 23:18 -2.94487 -52.53442 27574 ft 320 kts 111°
2026-05-08 23:18 -2.95321 -52.51335 27557 ft 332 kts 110°
2026-05-08 23:18 -2.96144 -52.49138 27584 ft 343 kts 109°
2026-05-08 23:18 -2.96954 -52.46867 27628 ft 352 kts 109°
2026-05-08 23:19 -2.98029 -52.44673 27692 ft 360 kts 122°
2026-05-08 23:19 -2.99464 -52.42602 27776 ft 369 kts 125°
2026-05-08 23:19 -3.00973 -52.40491 27854 ft 377 kts 124°
2026-05-08 23:19 -3.02452 -52.38289 27923 ft 385 kts 122°
2026-05-08 23:20 -3.03897 -52.35999 27999 ft 394 kts 121°
2026-05-08 23:20 -3.05340 -52.33631 28074 ft 402 kts 120°
2026-05-08 23:20 -3.08279 -52.28734 28224 ft 419 kts 120°
2026-05-08 23:21 -3.11310 -52.23685 28384 ft 434 kts 120°
2026-05-08 23:21 -3.14480 -52.18414 28515 ft 449 kts 121°
2026-05-08 23:22 -3.17749 -52.12974 28673 ft 463 kts 121°
2026-05-08 23:22 -3.21103 -52.07393 28944 ft 472 kts 121°
2026-05-08 23:23 -3.22798 -52.04571 29200 ft 474 kts 121°
2026-05-08 23:23 -3.24476 -52.01777 29431 ft 476 kts 121°
2026-05-08 23:23 -3.26190 -51.98923 29660 ft 479 kts 121°
2026-05-08 23:23 -3.27906 -51.96065 29914 ft 481 kts 121°
2026-05-08 23:24 -3.29632 -51.93191 30126 ft 483 kts 121°
2026-05-08 23:24 -3.31369 -51.90296 30340 ft 485 kts 121°
2026-05-08 23:24 -3.33109 -51.87398 30568 ft 487 kts 121°
2026-05-08 23:24 -3.34903 -51.84508 30751 ft 490 kts 125°
2026-05-08 23:25 -3.37110 -51.81923 30961 ft 491 kts 136°
2026-05-08 23:25 -3.39737 -51.79807 31148 ft 492 kts 147°
2026-05-08 23:25 -3.42745 -51.78180 31313 ft 492 kts 156°
2026-05-08 23:25 -3.45863 -51.76750 31463 ft 494 kts 155°
2026-05-08 23:26 -3.48981 -51.75286 31595 ft 496 kts 155°
2026-05-08 23:26 -3.52097 -51.73803 31742 ft 496 kts 155°
2026-05-08 23:26 -3.55216 -51.72311 31880 ft 497 kts 155°
2026-05-08 23:26 -3.58336 -51.70816 32038 ft 497 kts 155°
2026-05-08 23:27 -3.61454 -51.69322 32202 ft 497 kts 155°
2026-05-08 23:27 -3.64571 -51.67829 32351 ft 497 kts 155°
2026-05-08 23:27 -3.67646 -51.66357 32535 ft 496 kts 155°
2026-05-08 23:27 -3.70756 -51.64868 32704 ft 496 kts 155°
2026-05-08 23:28 -3.73868 -51.63379 32858 ft 496 kts 155°
2026-05-08 23:28 -3.76978 -51.61889 33020 ft 496 kts 155°
2026-05-08 23:28 -3.80054 -51.60416 33187 ft 495 kts 155°
2026-05-08 23:28 -3.83168 -51.58925 33339 ft 495 kts 155°
2026-05-08 23:29 -3.86266 -51.57442 33511 ft 495 kts 155°
2026-05-08 23:29 -3.89342 -51.55970 33667 ft 495 kts 155°
2026-05-08 23:29 -3.92442 -51.54483 33832 ft 495 kts 155°
2026-05-08 23:29 -3.95530 -51.52970 33979 ft 495 kts 154°
2026-05-08 23:30 -3.98615 -51.51436 34110 ft 495 kts 154°
2026-05-08 23:30 -4.01693 -51.49903 34255 ft 494 kts 154°
2026-05-08 23:30 -4.04772 -51.48373 34392 ft 494 kts 154°
2026-05-08 23:30 -4.07853 -51.46846 34533 ft 494 kts 154°
2026-05-08 23:31 -4.10937 -51.45320 34669 ft 494 kts 154°
2026-05-08 23:31 -4.13978 -51.43817 34815 ft 494 kts 154°
2026-05-08 23:31 -4.17051 -51.42298 34947 ft 493 kts 154°
2026-05-08 23:31 -4.20129 -51.40776 35093 ft 493 kts 154°
2026-05-08 23:32 -4.23208 -51.39254 35230 ft 493 kts 154°
2026-05-08 23:32 -4.26286 -51.37732 35357 ft 493 kts 155°
2026-05-08 23:32 -4.29363 -51.36210 35515 ft 493 kts 155°
2026-05-08 23:32 -4.32439 -51.34688 35658 ft 493 kts 155°
2026-05-08 23:33 -4.35515 -51.33167 35812 ft 493 kts 155°
2026-05-08 23:33 -4.38593 -51.31644 35984 ft 492 kts 155°
2026-05-08 23:33 -4.41616 -51.30148 36155 ft 492 kts 155°
2026-05-08 23:33 -4.44687 -51.28629 36310 ft 492 kts 155°
2026-05-08 23:34 -4.47754 -51.27111 36459 ft 492 kts 155°
2026-05-08 23:34 -4.50820 -51.25594 36612 ft 492 kts 155°
2026-05-08 23:34 -4.53886 -51.24076 36781 ft 491 kts 155°
2026-05-08 23:34 -4.56949 -51.22559 36891 ft 491 kts 155°
2026-05-08 23:35 -4.63067 -51.19530 36898 ft 490 kts 155°
2026-05-08 23:35 -4.69140 -51.16524 36900 ft 490 kts 155°
2026-05-08 23:36 -4.75253 -51.13496 36899 ft 490 kts 155°
2026-05-08 23:36 -4.81367 -51.10467 36905 ft 490 kts 155°
2026-05-08 23:37 -4.87448 -51.07457 36901 ft 490 kts 155°
2026-05-08 23:37 -4.93569 -51.04433 36897 ft 490 kts 155°
2026-05-08 23:38 -4.99691 -51.01408 36889 ft 491 kts 155°
2026-05-08 23:38 -5.05807 -50.98383 36892 ft 490 kts 155°
2026-05-08 23:39 -5.11886 -50.95377 36915 ft 490 kts 155°
2026-05-08 23:39 -5.18001 -50.92352 36919 ft 490 kts 155°
2026-05-08 23:40 -5.24124 -50.89322 36896 ft 491 kts 155°
2026-05-08 23:40 -5.30242 -50.86294 36890 ft 491 kts 155°
2026-05-08 23:41 -5.36368 -50.83262 36919 ft 490 kts 155°
2026-05-08 23:41 -5.42447 -50.80252 36925 ft 491 kts 155°
2026-05-08 23:42 -5.48574 -50.77217 36896 ft 491 kts 155°
2026-05-08 23:42 -5.54685 -50.74190 36892 ft 491 kts 155°
2026-05-08 23:43 -5.60811 -50.71155 36905 ft 491 kts 155°
2026-05-08 23:43 -5.66896 -50.68142 36925 ft 491 kts 155°
2026-05-08 23:44 -5.73015 -50.65112 36926 ft 491 kts 155°
2026-05-08 23:44 -5.79148 -50.62074 36902 ft 491 kts 155°
2026-05-08 23:45 -5.85272 -50.59039 36898 ft 491 kts 155°
2026-05-08 23:45 -5.91361 -50.56022 36911 ft 491 kts 155°
2026-05-08 23:46 -5.97483 -50.52988 36941 ft 491 kts 155°
2026-05-08 23:46 -6.03613 -50.49947 36936 ft 491 kts 155°
2026-05-08 23:47 -6.09737 -50.46909 36915 ft 491 kts 155°
2026-05-08 23:47 -6.15863 -50.43870 36910 ft 491 kts 155°
2026-05-08 23:48 -6.21946 -50.40852 36917 ft 491 kts 155°
2026-05-08 23:48 -6.28079 -50.37807 36942 ft 491 kts 155°
2026-05-08 23:49 -6.34206 -50.34766 36944 ft 491 kts 155°
2026-05-08 23:49 -6.40329 -50.31725 36909 ft 492 kts 155°
2026-05-08 23:50 -6.46425 -50.28697 36904 ft 492 kts 155°
2026-05-08 23:50 -6.52549 -50.25653 36911 ft 491 kts 155°
2026-05-08 23:51 -6.58682 -50.22605 36932 ft 491 kts 155°
2026-05-08 23:51 -6.64807 -50.19560 36932 ft 491 kts 155°
2026-05-08 23:52 -6.70943 -50.16504 36901 ft 492 kts 155°
2026-05-08 23:52 -6.77029 -50.13469 36894 ft 492 kts 155°
2026-05-08 23:53 -6.83161 -50.10411 36923 ft 492 kts 155°
2026-05-08 23:53 -6.89295 -50.07351 36925 ft 492 kts 155°
2026-05-08 23:54 -6.95431 -50.04290 36899 ft 492 kts 155°
2026-05-08 23:55 -7.04591 -49.99718 36905 ft 492 kts 155°
2026-05-08 23:55 -7.10727 -49.96655 36927 ft 492 kts 155°
2026-05-08 23:56 -7.16863 -49.93590 36900 ft 492 kts 155°
2026-05-08 23:56 -7.23000 -49.90524 36891 ft 492 kts 155°
2026-05-08 23:57 -7.29095 -49.87478 36900 ft 492 kts 155°
2026-05-08 23:57 -7.35225 -49.84413 36923 ft 492 kts 155°
2026-05-08 23:58 -7.41360 -49.81345 36914 ft 492 kts 155°
2026-05-08 23:58 -7.47502 -49.78272 36885 ft 493 kts 155°
2026-05-08 23:59 -7.53635 -49.75203 36883 ft 493 kts 155°
2026-05-08 23:59 -7.59735 -49.72151 36889 ft 493 kts 155°
2026-05-09 00:00 -7.65863 -49.69047 36912 ft 492 kts 155°
2026-05-09 00:00 -7.71983 -49.65930 36912 ft 493 kts 155°
2026-05-09 00:01 -7.78104 -49.62817 36884 ft 493 kts 155°
2026-05-09 00:01 -7.84191 -49.59723 36880 ft 493 kts 155°
2026-05-09 00:02 -7.90321 -49.56607 36887 ft 493 kts 155°
2026-05-09 00:02 -7.96443 -49.53493 36918 ft 493 kts 155°
2026-05-09 00:03 -8.02573 -49.50374 36911 ft 493 kts 155°
2026-05-09 00:03 -8.08662 -49.47275 36895 ft 493 kts 155°
2026-05-09 00:04 -8.14791 -49.44165 36878 ft 494 kts 155°
2026-05-09 00:04 -8.20950 -49.41092 36888 ft 494 kts 155°
2026-05-09 00:05 -8.27098 -49.38022 36903 ft 493 kts 155°
2026-05-09 00:05 -8.33208 -49.34963 36916 ft 493 kts 155°
2026-05-09 00:06 -8.39358 -49.31882 36911 ft 493 kts 155°
2026-05-09 00:06 -8.45503 -49.28802 36885 ft 493 kts 155°
2026-05-09 00:07 -8.51646 -49.25723 36881 ft 493 kts 155°
2026-05-09 00:07 -8.57750 -49.22661 36890 ft 493 kts 155°
2026-05-09 00:08 -8.63897 -49.19577 36924 ft 493 kts 155°
2026-05-09 00:08 -8.70035 -49.16496 36916 ft 493 kts 155°
2026-05-09 00:09 -8.76181 -49.13410 36891 ft 493 kts 155°
2026-05-09 00:09 -8.82323 -49.10325 36888 ft 493 kts 155°
2026-05-09 00:10 -8.88428 -49.07258 36897 ft 493 kts 155°
2026-05-09 00:10 -8.94568 -49.04172 36924 ft 493 kts 155°
2026-05-09 00:11 -9.00717 -49.01080 36926 ft 493 kts 155°
2026-05-09 00:11 -9.06866 -48.97987 36902 ft 494 kts 155°
2026-05-09 00:12 -9.12964 -48.94917 36897 ft 494 kts 155°
2026-05-09 00:12 -9.19106 -48.91804 36903 ft 494 kts 154°
2026-05-09 00:13 -9.25177 -48.88536 36935 ft 494 kts 154°
2026-05-09 00:13 -9.31237 -48.85269 36936 ft 494 kts 154°
2026-05-09 00:14 -9.37272 -48.82036 36910 ft 494 kts 154°
2026-05-09 00:14 -9.43351 -48.78785 36899 ft 494 kts 154°
2026-05-09 00:15 -9.49421 -48.75538 36906 ft 494 kts 154°
2026-05-09 00:15 -9.55504 -48.72282 36934 ft 494 kts 154°
2026-05-09 00:16 -9.61574 -48.69031 36937 ft 494 kts 154°
2026-05-09 00:16 -9.67652 -48.65775 36910 ft 494 kts 154°
2026-05-09 00:17 -9.73832 -48.62875 36904 ft 493 kts 158°
2026-05-09 00:17 -9.80081 -48.60031 36916 ft 493 kts 158°
2026-05-09 00:18 -9.86336 -48.57172 36921 ft 493 kts 158°
2026-05-09 00:18 -9.92587 -48.54314 36911 ft 493 kts 158°
2026-05-09 00:19 -9.98801 -48.51473 36908 ft 493 kts 158°
2026-05-09 00:19 -10.05048 -48.48616 36919 ft 493 kts 158°
2026-05-09 00:20 -10.11307 -48.45753 36951 ft 493 kts 158°
2026-05-09 00:20 -10.17552 -48.42894 36956 ft 492 kts 158°
2026-05-09 00:21 -10.23762 -48.40050 36929 ft 493 kts 158°
2026-05-09 00:21 -10.30007 -48.37188 36932 ft 492 kts 158°
2026-05-09 00:22 -10.36252 -48.34326 36943 ft 492 kts 158°